"Period start","avg(HW err(1)/warn(2) (#))","avg(Visibility (m))","avg(Weather code (#))","avg(Precip intensity (mm/h))","min(HW err(1)/warn(2) (#))","max(HW err(1)/warn(2) (#))","std(HW err(1)/warn(2) (#))","med(HW err(1)/warn(2) (#))","min(Visibility (m))","max(Visibility (m))","std(Visibility (m))","med(Visibility (m))","min(Weather code (#))","max(Weather code (#))","std(Weather code (#))","med(Weather code (#))","min(Precip intensity (mm/h))","max(Precip intensity (mm/h))","std(Precip intensity (mm/h))","med(Precip intensity (mm/h))"
2017-12-16 00:00:00,1,50000,0,0.00,1,2,0,1,50000,50000,0,50000,0,0,0,0,0.00,0.00,0.00,0.00
2017-12-16 00:10:00,1,,,,1,1,0,1,,,,,,,,,,,,
2017-12-16 00:20:00,1,,,,1,1,0,1,,,,,,,,,,,,
2017-12-16 00:30:00,1,,,,1,1,0,1,,,,,,,,,,,,
2017-12-16 00:40:00,1,,,,1,1,0,1,,,,,,,,,,,,
2017-12-16 00:50:00,1,,,,1,1,0,1,,,,,,,,,,,,
2017-12-16 01:00:00,1,,,,1,1,0,1,,,,,,,,,,,,
2017-12-16 01:10:00,1,,,,1,1,0,1,,,,,,,,,,,,
2017-12-16 01:20:00,1,,,,1,1,0,1,,,,,,,,,,,,
2017-12-16 01:30:00,1,,,,1,1,0,1,,,,,,,,,,,,
2017-12-16 01:40:00,1,,,,1,1,0,1,,,,,,,,,,,,
2017-12-16 01:50:00,1,,,,1,1,0,1,,,,,,,,,,,,
2017-12-16 02:00:00,1,,,,1,1,0,1,,,,,,,,,,,,
2017-12-16 02:10:00,1,,,,1,1,0,1,,,,,,,,,,,,
2017-12-16 02:20:00,1,,,,1,1,0,1,,,,,,,,,,,,
2017-12-16 02:30:00,2,11226,71,0.08,1,2,0,2,0,29027,9333,8483,71,71,0,71,0.00,0.30,0.10,0.05
2017-12-16 02:40:00,2,18593,71,0.04,2,2,0,2,9323,30456,5713,18370,71,71,0,71,0.00,0.20,0.07,0.00
2017-12-16 02:50:00,2,12181,71,0.10,2,2,0,2,4191,29027,6601,11380,71,71,0,71,0.00,0.45,0.13,0.05
2017-12-16 03:00:00,2,10849,71,0.14,2,2,0,2,3767,14952,3359,10994,71,71,0,71,0.00,0.45,0.14,0.10
2017-12-16 03:10:00,2,4110,71,0.63,2,2,0,2,1759,7688,2100,3632,71,71,0,71,0.05,1.80,0.52,0.57
2017-12-16 03:20:00,2,7870,71,0.34,2,2,0,2,3326,17473,3820,8082,71,71,0,71,0.00,1.05,0.30,0.20
2017-12-16 03:30:00,2,13650,71,0.07,2,2,0,2,9287,27184,4989,12315,71,71,0,71,0.00,0.15,0.05,0.05
2017-12-16 03:40:00,2,6966,71,0.60,2,2,0,2,2658,14705,3689,6806,71,71,0,71,0.15,2.35,0.67,0.28
2017-12-16 03:50:00,2,4802,71,0.62,2,2,0,2,2577,8064,1628,4222,71,71,0,71,0.30,1.30,0.30,0.62
2017-12-16 04:00:00,2,8324,71,0.39,2,2,0,2,5515,13004,2617,7676,71,71,0,71,0.10,1.00,0.25,0.38
2017-12-16 04:10:00,2,9816,71,0.25,2,2,0,2,4867,19480,4147,8449,71,71,0,71,0.00,0.75,0.26,0.12
2017-12-16 04:20:00,2,28145,71,0.08,2,2,0,2,8120,48411,13167,28961,71,71,0,71,0.00,0.50,0.15,0.03
2017-12-16 04:30:00,2,34131,74,0.02,2,2,0,2,17048,50000,11695,31012,71,77,3,74,0.00,0.20,0.06,0.00
2017-12-16 04:40:00,2,48336,68,0.00,2,2,0,2,36735,50000,3996,50000,0,77,23,77,0.00,0.00,0.00,0.00
2017-12-16 04:50:00,2,50000,0,0.00,2,2,0,2,50000,50000,0,50000,0,0,0,0,0.00,0.00,0.00,0.00
2017-12-16 05:00:00,2,47739,0,0.00,1,2,0,2,41596,50000,3270,50000,0,0,0,0,0.00,0.00,0.00,0.00
2017-12-16 05:10:00,1,,,,1,1,0,1,,,,,,,,,,,,
2017-12-16 05:20:00,1,,,,1,1,0,1,,,,,,,,,,,,
2017-12-16 05:30:00,2,40000,,0.00,1,2,0,2,0,50000,20000,50000,,,,,0.00,0.00,0.00,0.00
2017-12-16 05:40:00,2,49976,0,0.00,2,2,0,2,49757,50000,73,50000,0,0,0,0,0.00,0.00,0.00,0.00
2017-12-16 05:50:00,2,47953,8,0.00,2,2,0,2,35626,50000,4287,50000,0,41,16,0,0.00,0.00,0.00,0.00
2017-12-16 06:00:00,2,49445,4,0.00,2,2,0,2,45205,50000,1431,50000,0,41,12,0,0.00,0.00,0.00,0.00
2017-12-16 06:10:00,2,45563,12,0.00,2,2,0,2,34231,50000,5438,47352,0,41,19,0,0.00,0.00,0.00,0.00
2017-12-16 06:20:00,2,49681,0,0.00,2,2,0,2,46814,50000,956,50000,0,0,0,0,0.00,0.00,0.00,0.00
2017-12-16 06:30:00,2,50000,0,0.00,2,2,0,2,50000,50000,0,50000,0,0,0,0,0.00,0.00,0.00,0.00
2017-12-16 06:40:00,2,50000,0,0.00,2,2,0,2,50000,50000,0,50000,0,0,0,0,0.00,0.00,0.00,0.00
2017-12-16 06:50:00,2,50000,0,0.00,2,2,0,2,50000,50000,0,50000,0,0,0,0,0.00,0.00,0.00,0.00
2017-12-16 07:00:00,2,50000,0,0.00,2,2,0,2,50000,50000,0,50000,0,0,0,0,0.00,0.00,0.00,0.00
2017-12-16 07:10:00,2,50000,0,0.00,2,2,0,2,50000,50000,0,50000,0,0,0,0,0.00,0.00,0.00,0.00
2017-12-16 07:20:00,2,50000,0,0.00,2,2,0,2,50000,50000,0,50000,0,0,0,0,0.00,0.00,0.00,0.00
2017-12-16 07:30:00,2,50000,0,0.00,2,2,0,2,50000,50000,0,50000,0,0,0,0,0.00,0.00,0.00,0.00
2017-12-16 07:40:00,2,40000,0,0.00,1,2,0,2,0,50000,20000,50000,0,0,0,0,0.00,0.00,0.00,0.00
2017-12-16 07:50:00,1,,,,1,1,0,1,,,,,,,,,,,,
2017-12-16 08:00:00,1,,,,1,1,0,1,,,,,,,,,,,,
2017-12-16 08:10:00,1,,,,1,1,0,1,,,,,,,,,,,,
2017-12-16 08:20:00,1,11899,73,0.02,1,2,0,1,0,18128,8417,17570,71,77,3,71,0.00,0.05,0.02,0.00
2017-12-16 08:30:00,2,23678,75,0.01,2,2,0,2,12813,40681,10334,19889,71,77,3,77,0.00,0.05,0.02,0.00
2017-12-16 08:40:00,2,46852,75,0.00,2,2,0,2,40383,50000,3102,47100,71,77,3,77,0.00,0.00,0.00,0.00
2017-12-16 08:50:00,2,39329,74,0.00,2,2,0,2,34477,42955,2399,39760,71,77,3,74,0.00,0.00,0.00,0.00
2017-12-16 09:00:00,2,32827,75,0.01,2,2,0,2,23428,41107,5913,32805,71,77,3,77,0.00,0.05,0.02,0.00
2017-12-16 09:10:00,2,35404,75,0.00,2,2,0,2,24133,44515,6244,35556,71,77,3,77,0.00,0.00,0.00,0.00
2017-12-16 09:20:00,2,28789,51,0.00,2,2,0,2,13973,39299,7495,29482,0,77,33,71,0.00,0.00,0.00,0.00
2017-12-16 09:30:00,2,17007,74,0.00,2,2,0,2,11659,26665,5229,15242,71,77,3,74,0.00,0.00,0.00,0.00
2017-12-16 09:40:00,2,22060,74,0.01,2,2,0,2,14363,32023,6344,21916,71,77,3,74,0.00,0.05,0.02,0.00
2017-12-16 09:50:00,2,36411,76,0.01,2,2,0,2,20772,45491,7012,37504,71,77,2,77,0.00,0.05,0.02,0.00
2017-12-16 10:00:00,2,25962,75,0.01,2,2,0,2,9509,42468,9053,26963,71,77,3,77,0.00,0.05,0.02,0.00
2017-12-16 10:10:00,2,23187,75,0.01,2,2,0,2,12110,34405,6431,23950,71,77,3,77,0.00,0.05,0.02,0.00
2017-12-16 10:20:00,2,23596,59,0.02,2,2,0,2,8635,43512,9846,21038,0,77,30,71,0.00,0.10,0.04,0.00
2017-12-16 10:30:00,2,31943,75,0.01,2,2,0,2,18853,45372,7926,29887,71,77,3,77,0.00,0.05,0.02,0.00
2017-12-16 10:40:00,2,34393,75,0.01,2,2,0,2,15406,50000,12016,35588,71,77,3,77,0.00,0.05,0.02,0.00
2017-12-16 10:50:00,2,44987,68,0.00,2,2,0,2,30719,50000,6191,46581,0,77,23,77,0.00,0.00,0.00,0.00
2017-12-16 11:00:00,2,37547,21,0.00,2,2,0,2,11998,50000,13571,40964,0,71,33,0,0.00,0.00,0.00,0.00
2017-12-16 11:10:00,2,49794,0,0.00,2,2,0,2,47942,50000,617,50000,0,0,0,0,0.00,0.00,0.00,0.00
2017-12-16 11:20:00,2,50000,0,0.00,2,2,0,2,50000,50000,0,50000,0,0,0,0,0.00,0.00,0.00,0.00
2017-12-16 11:30:00,2,50000,0,0.00,2,2,0,2,50000,50000,0,50000,0,0,0,0,0.00,0.00,0.00,0.00
2017-12-16 11:40:00,2,50000,0,0.00,2,2,0,2,50000,50000,0,50000,0,0,0,0,0.00,0.00,0.00,0.00
2017-12-16 11:50:00,2,50000,0,0.00,2,2,0,2,50000,50000,0,50000,0,0,0,0,0.00,0.00,0.00,0.00
2017-12-16 12:00:00,2,50000,0,0.00,2,2,0,2,50000,50000,0,50000,0,0,0,0,0.00,0.00,0.00,0.00
2017-12-16 12:10:00,2,50000,0,0.00,2,2,0,2,50000,50000,0,50000,0,0,0,0,0.00,0.00,0.00,0.00
2017-12-16 12:20:00,2,50000,0,0.00,2,2,0,2,50000,50000,0,50000,0,0,0,0,0.00,0.00,0.00,0.00
2017-12-16 12:30:00,2,50000,0,0.00,2,2,0,2,50000,50000,0,50000,0,0,0,0,0.00,0.00,0.00,0.00
2017-12-16 12:40:00,2,50000,0,0.00,2,2,0,2,50000,50000,0,50000,0,0,0,0,0.00,0.00,0.00,0.00
2017-12-16 12:50:00,2,50000,0,0.00,2,2,0,2,50000,50000,0,50000,0,0,0,0,0.00,0.00,0.00,0.00
2017-12-16 13:00:00,2,50000,0,0.00,2,2,0,2,50000,50000,0,50000,0,0,0,0,0.00,0.00,0.00,0.00
2017-12-16 13:10:00,2,50000,0,0.00,2,2,0,2,50000,50000,0,50000,0,0,0,0,0.00,0.00,0.00,0.00
2017-12-16 13:20:00,2,50000,0,0.00,2,2,0,2,50000,50000,0,50000,0,0,0,0,0.00,0.00,0.00,0.00
2017-12-16 13:30:00,2,50000,0,0.00,2,2,0,2,50000,50000,0,50000,0,0,0,0,0.00,0.00,0.00,0.00
2017-12-16 13:40:00,2,50000,0,0.00,2,2,0,2,50000,50000,0,50000,0,0,0,0,0.00,0.00,0.00,0.00
2017-12-16 13:50:00,2,50000,0,0.00,2,2,0,2,50000,50000,0,50000,0,0,0,0,0.00,0.00,0.00,0.00
2017-12-16 14:00:00,2,50000,0,0.00,2,2,0,2,50000,50000,0,50000,0,0,0,0,0.00,0.00,0.00,0.00
2017-12-16 14:10:00,2,50000,0,0.00,2,2,0,2,50000,50000,0,50000,0,0,0,0,0.00,0.00,0.00,0.00
2017-12-16 14:20:00,2,50000,0,0.00,2,2,0,2,50000,50000,0,50000,0,0,0,0,0.00,0.00,0.00,0.00
2017-12-16 14:30:00,2,50000,0,0.00,2,2,0,2,50000,50000,0,50000,0,0,0,0,0.00,0.00,0.00,0.00
2017-12-16 14:40:00,2,50000,0,0.00,2,2,0,2,50000,50000,0,50000,0,0,0,0,0.00,0.00,0.00,0.00
2017-12-16 14:50:00,2,50000,0,0.00,2,2,0,2,50000,50000,0,50000,0,0,0,0,0.00,0.00,0.00,0.00
2017-12-16 15:00:00,2,50000,0,0.00,1,2,0,2,50000,50000,0,50000,0,0,0,0,0.00,0.00,0.00,0.00
2017-12-16 15:10:00,1,25000,0,0.00,1,2,0,1,0,50000,25000,25000,0,0,0,0,0.00,0.00,0.00,0.00
2017-12-16 15:20:00,1,,,,1,1,0,1,,,,,,,,,,,,
2017-12-16 15:30:00,1,,,,1,1,0,1,,,,,,,,,,,,
2017-12-16 15:40:00,1,,,,1,1,0,1,,,,,,,,,,,,
2017-12-16 15:50:00,1,,,,1,1,0,1,,,,,,,,,,,,
2017-12-16 16:00:00,1,,,,1,1,0,1,,,,,,,,,,,,
2017-12-16 16:10:00,1,,,,1,1,0,1,,,,,,,,,,,,
2017-12-16 16:20:00,1,,,,1,1,0,1,,,,,,,,,,,,
2017-12-16 16:30:00,1,,,,1,1,0,1,,,,,,,,,,,,
2017-12-16 16:40:00,1,,,,1,1,0,1,,,,,,,,,,,,
2017-12-16 16:50:00,1,,,,1,1,0,1,,,,,,,,,,,,
2017-12-16 17:00:00,1,,,,1,1,0,1,,,,,,,,,,,,
2017-12-16 17:10:00,1,,,,1,1,0,1,,,,,,,,,,,,
2017-12-16 17:20:00,1,,,,1,1,0,1,,,,,,,,,,,,
2017-12-16 17:30:00,1,,,,1,1,0,1,,,,,,,,,,,,
2017-12-16 17:40:00,1,,,,1,1,0,1,,,,,,,,,,,,
2017-12-16 17:50:00,1,,,,1,1,0,1,,,,,,,,,,,,
2017-12-16 18:00:00,1,,,,1,1,0,1,,,,,,,,,,,,
2017-12-16 18:10:00,2,41667,,0.00,1,2,0,2,0,50000,18634,50000,,,,,0.00,0.00,0.00,0.00
2017-12-16 18:20:00,2,50000,0,0.00,2,2,0,2,50000,50000,0,50000,0,0,0,0,0.00,0.00,0.00,0.00
2017-12-16 18:30:00,2,50000,0,0.00,2,2,0,2,50000,50000,0,50000,0,0,0,0,0.00,0.00,0.00,0.00
2017-12-16 18:40:00,1,50000,0,0.00,1,2,0,1,50000,50000,0,50000,0,0,0,0,0.00,0.00,0.00,0.00
2017-12-16 18:50:00,1,,,,1,1,0,1,,,,,,,,,,,,
2017-12-16 19:00:00,1,,,,1,1,0,1,,,,,,,,,,,,
2017-12-16 19:10:00,1,,,,1,1,0,1,,,,,,,,,,,,
2017-12-16 19:20:00,1,,,,1,1,0,1,,,,,,,,,,,,
2017-12-16 19:30:00,1,,,,1,1,0,1,,,,,,,,,,,,
2017-12-16 19:40:00,1,,,,1,1,0,1,,,,,,,,,,,,
2017-12-16 19:50:00,1,,,,1,1,0,1,,,,,,,,,,,,
2017-12-16 20:00:00,2,32631,,0.00,1,2,0,2,0,50000,18132,39572,,,,,0.00,0.00,0.00,0.00
2017-12-16 20:10:00,2,40679,34,0.00,2,2,0,2,24322,50000,8290,43972,0,71,27,40,0.00,0.00,0.00,0.00
2017-12-16 20:20:00,2,47667,0,0.00,2,2,0,2,36518,50000,4414,50000,0,0,0,0,0.00,0.00,0.00,0.00
2017-12-16 20:30:00,2,41924,7,0.00,2,2,0,2,25427,50000,9423,46118,0,71,21,0,0.00,0.00,0.00,0.00
2017-12-16 20:40:00,2,38344,22,0.00,2,2,0,2,22828,50000,9596,34912,0,77,33,0,0.00,0.00,0.00,0.00
2017-12-16 20:50:00,2,38774,0,0.00,2,2,0,2,32729,47069,4523,37724,0,0,0,0,0.00,0.00,0.00,0.00
2017-12-16 21:00:00,2,29094,36,0.02,2,2,0,2,11200,49607,12115,30427,0,71,36,36,0.00,0.15,0.05,0.00
2017-12-16 21:10:00,2,16113,28,0.00,2,2,0,2,12653,24651,4101,13984,0,71,35,0,0.00,0.00,0.00,0.00
2017-12-16 21:20:00,2,11819,44,0.01,2,2,0,2,7977,14096,1825,11920,0,77,36,71,0.00,0.05,0.02,0.00
2017-12-16 21:30:00,2,10901,0,0.00,2,2,0,2,8248,13908,1692,10818,0,0,0,0,0.00,0.00,0.00,0.00
2017-12-16 21:40:00,2,12798,28,0.00,2,2,0,2,11181,14793,1177,12496,0,71,35,0,0.00,0.00,0.00,0.00
2017-12-16 21:50:00,2,12990,75,0.00,2,2,0,2,10316,14253,1194,12829,71,77,3,77,0.00,0.00,0.00,0.00
2017-12-16 22:00:00,2,12898,52,0.00,2,2,0,2,10140,16025,1619,12694,0,77,34,71,0.00,0.00,0.00,0.00
2017-12-16 22:10:00,2,14872,0,0.00,2,2,0,2,10345,19870,3170,14890,0,0,0,0,0.00,0.00,0.00,0.00
2017-12-16 22:20:00,2,13769,44,0.01,2,2,0,2,9857,17749,2421,13623,0,77,36,71,0.00,0.05,0.02,0.00
2017-12-16 22:30:00,2,20155,75,0.00,1,2,0,2,15191,23618,2764,20200,71,77,3,77,0.00,0.00,0.00,0.00
2017-12-16 22:40:00,1,0,,0.00,1,2,0,1,0,0,0,0,,,,,0.00,0.00,0.00,0.00
2017-12-16 22:50:00,1,,,,1,1,0,1,,,,,,,,,,,,
2017-12-16 23:00:00,1,0,,0.00,1,2,0,1,0,0,0,0,,,,,0.00,0.00,0.00,0.00
2017-12-16 23:10:00,2,12200,,0.00,1,2,0,2,0,24704,10695,13298,,,,,0.00,0.00,0.00,0.00
2017-12-16 23:20:00,2,28476,64,0.00,2,2,0,2,22909,36681,4791,27224,40,77,15,71,0.00,0.00,0.00,0.00
2017-12-16 23:30:00,2,17088,51,0.01,2,2,0,2,10985,21302,4115,19325,0,77,33,71,0.00,0.10,0.03,0.00
2017-12-16 23:40:00,2,18804,68,0.00,2,2,0,2,3833,25612,7263,21760,0,77,23,77,0.00,0.00,0.00,0.00
2017-12-16 23:50:00,2,17673,59,0.02,2,2,0,2,8314,32824,6738,15870,0,77,29,71,0.00,0.10,0.03,0.00
